Find Starlink 11151

NORAD ID: 60049 Int'l Des: 2024-112 Owner: SPXS Country: US Constellation: starlink operational
又名: STARLINK-11151 [DTC] celestrak
LEOCIRCULAR

当前视图

正在加载3D地球...

About Starlink 11151

Starlink 11151 (NORAD 60049) is a starlink constellation satellite (v2 mini d2c) launched Jun 8, 2024 by SPXS of US. It operates in LEO, CIRCULAR orbit with a mass of 960.00 kg.

即将过境

Passes for default location (London). Set your location on the main map for personalized predictions.

高度历史

Loading altitude history...

两行轨道根数

1 60049U 24112M 26234.79921754 .00000182 00000-0 63581-5 0 9999
2 60049 53.1588 167.1683 0000945 93.5122 266.6004 15.69709159127076
Epoch: Aug 22, 2026 • Age: 32 hours

当前状态

高度 360.7 km
远地点 / 近地点 N/A
速度 7.69 km/s
星下点 0.20°N, 139.23°E
发射日期 Jun 8, 2024
运行时间 2.2 years
类型 internet

技术详情

分类 Payload
质量 960.00 kg
干质量 910.00 kg
总质量 960.00 kg
长度 0.30 m
直径 4.10 m
跨度 29.00 m
形状 Box + pan
制造商 SPXS
平台类型 Starlink V2MD
阶段状态 In Orbit
所有者/国家 SPXS/US

Most Searched